Location: Liège
(50.6326°N, 5.5797°E)
Time: 02:35:14
(UTC+02:00)

ISS - Visible Passes

Search period start: 26 July 2017 00:00
Search period end: 05 August 2017 00:00
Orbit: 400 x 408 km, 51.6° (Epoch: 26 July)

Date Brightness Start Highest point End Pass type
(mag) Time Alt. Az. Time Alt. Az. Time Alt. Az.
26 Jul -3.7 00:51:01 10° W 00:54:16 72° N 00:56:43 16° E visible
26 Jul -2.5 02:27:33 10° WNW 02:29:16 28° W 02:29:16 28° W visible
26 Jul -3.5 22:22:27 10° SW 22:25:33 42° SSE 22:28:39 10° E visible
26 Jul -3.8 23:58:40 10° W 00:01:56 77° N 00:05:11 10° E visible
27 Jul -3.5 01:35:14 10° WNW 01:37:56 58° WNW 01:37:56 58° WNW visible
27 Jul -3.9 23:06:19 10° WSW 23:09:35 89° SSE 23:12:51 10° ENE visible
28 Jul -3.8 00:42:54 10° W 00:46:09 75° N 00:46:59 46° E visible
28 Jul -1.1 02:19:25 10° W 02:19:35 11° W 02:19:35 11° W visible
28 Jul -3.9 22:14:02 10° WSW 22:17:16 69° SSE 22:20:31 10° ENE visible
28 Jul -3.6 23:50:32 10° W 23:53:47 71° N 23:56:08 17° E visible
29 Jul -2.3 01:27:03 10° WNW 01:28:45 28° W 01:28:45 28° W visible
29 Jul -3.7 22:58:08 10° W 23:01:24 74° N 23:04:40 10° E visible
30 Jul -4.0 00:34:41 10° WNW 00:37:57 87° SSW 00:37:57 87° SSW visible
30 Jul -3.8 22:05:45 10° W 22:09:01 85° NNW 22:12:17 10° ENE visible
30 Jul -3.8 23:42:19 10° W 23:45:36 78° N 23:47:12 27° E visible
31 Jul -1.6 01:18:52 10° W 01:19:49 17° W 01:19:49 17° W visible
31 Jul -3.6 22:49:56 10° W 22:53:11 72° N 22:56:27 10° E visible
01 Aug -3.3 00:26:27 10° WNW 00:29:05 48° WSW 00:29:05 48° WSW visible
01 Aug -3.6 21:57:30 10° W 22:00:45 73° N 22:04:01 10° E visible
01 Aug -4.0 23:34:03 10° WNW 23:37:19 80° SSW 23:38:21 40° ESE visible
02 Aug -1.0 01:10:49 10° W 01:10:58 11° W 01:10:58 11° W visible
02 Aug -3.8 22:41:38 10° WNW 22:44:54 83° N 22:47:39 14° E visible
03 Aug -2.4 00:18:13 10° W 00:20:16 28° WSW 00:20:16 28° WSW visible
03 Aug -3.6 23:25:43 10° W 23:28:55 52° SSW 23:29:34 42° SSE visible
04 Aug -3.9 22:33:16 10° WNW 22:36:32 73° SSW 22:38:54 17° ESE visible
